Regional Weather Roundup
Issued by NWS

Home | Current Version | Previous Version | Text Only | Print | Product List | Glossary On
Versions: 1 2 3 4 5 6 7 8 9 10 11 12 13 14 15 16 17 18 19 20 21 22 23 24 25 26 27 28 29 30 31 32 33 34 35 36 37 38 39 40 41 42 43 44 45 46 47 48 49 50
000
ASUS44 KBMX 280310
RWRAL

ALABAMA REGIONAL WEATHER ROUNDUP
NATIONAL WEATHER SERVICE BIRMINGHAM AL
1000 PM CDT MON JUL 27 2015

NOTE: "FAIR" INDICATES FEW OR NO CLOUDS BELOW 12,000 FEET
WITH NO SIGNIFICANT WEATHER AND/OR OBSTRUCTIONS TO VISIBILITY.

THE REMARK "TC" DENOTES TEMPERATURE IN DEGREES CELSIUS.

ALZ001>011-014-016>018-020-280400-
NORTH ALABAMA

CITY           SKY/WX    TMP DP  RH WIND       PRES   REMARKS
MUSCLE SHOALS  CLEAR     80  75  84 CALM      29.98R
HUNTSVILLE     PTCLDY    84  74  71 SW3       29.98R HX  91
DECATUR        CLEAR     80  75  84 CALM      29.99R
HALEYVILLE     FAIR      78  78 100 CALM      30.03R
GADSDEN        PTCLDY    79  70  73 CALM      29.98R
$$

ALZ012-013-022-023-030>036-040>044-280400-
WEST CENTRAL ALABAMA

CITY           SKY/WX    TMP DP  RH WIND       PRES   REMARKS
TUSCALOOSA     PTCLDY    83  74  74 NE5       29.96R
$$

ALZ015-024>027-033>036-040>044-280400-
CENTRAL ALABAMA

CITY           SKY/WX    TMP DP  RH WIND       PRES   REMARKS
BIRMINGHAM     PTCLDY    76  75  97 CALM      30.01R
MONTGOMERY     CLEAR     84  75  74 NW3       29.95R HX  92
SHELBY CO ARPT PTCLDY    76  73  91 CALM      29.99R
MAXWELL AFB    PTCLDY    82  76  81 N2        29.95R
GREENVILLE     FAIR      79  75  87 CALM      29.96R
$$

ALZ019-021-028-029-037-038-045>048-280400-
EAST CENTRAL ALABAMA

CITY           SKY/WX    TMP DP  RH WIND       PRES   REMARKS
ANNISTON       CLEAR     78  75  90 CALM      29.99R
ALEXANDER CITY PTCLDY    79  69  71 CALM      29.98S
AUBURN         CLEAR     81  70  69 N7        30.00R
$$

ALZ051>064-280400-
SOUTHWEST ALABAMA

CITY           SKY/WX    TMP DP  RH WIND       PRES   REMARKS
MOBILE         MOCLDY    81  74  79 W3        29.96R
BROOKLEY FIELD CLEAR     83  74  74 W5        29.96R
EVERGREEN      MOCLDY    80  73  79 CALM      29.97R
$$

ALZ049-050-065>069-280400-
SOUTHEAST ALABAMA

CITY           SKY/WX    TMP DP  RH WIND       PRES   REMARKS
DOTHAN         CLEAR     83  74  74 CALM      29.98R
OZARK          CLEAR     84  73  70 CALM      29.95R HX  90
TROY           CLEAR     78  75  90 CALM      29.96R
EUFAULA        FAIR      79  76  90 CALM      29.95R
$$


USA.gov is the U.S. government's official web portal to all federal, state and local government web resources and services.